Temperature
19 19 19 19 19 19 19 19 19 19 18 18 18 18 18 18 18 18 18 18 18 18 18 18 18 18 17 17 17 17 17 17 17 17 17 17 17 17 17 17 17 16 16
19 19 19 19 19 19 19 19 19 19 18 18 18 18 18 18 18 18 18 18 18 18 18 18 18 18 17 17 17 17 17 17 17 17 17 17 17 17 17 17 17 17 16
19 19 19 19 19 19 19 18 18 18 18 18 18 18 18 18 18 18 18 18 18 18 18 18 18 17 17 17 17 17 17 17 17 17 17 17 17 17 17 17 17 17 16
19 19 19 19 19 18 18 18 18 18 18 18 18 18 18 18 18 18 18 18 18 18 18 18 18 17 17 17 17 17 17 17 17 17 17 17 17 17 17 17 16 16 16
19 19 19 19 19 18 18 18 18 18 18 18 18 18 18 18 18 18 18 18 18 18 18 18 18 17 17 17 17 17 17 17 17 17 17 17 17 17 17 17 16 16 16
19 19 19 19 18 18 18 18 18 18 18 18 18 18 18 18 18 18 18 18 18 17 18 18 18 17 17 17 17 17 17 17 17 17 17 17 17 17 17 17 16 16 16
19 19 19 18 18 18 18 18 18 18 18 18 18 18 18 18 18 18 18 18 18 18 18 18 18 18 17 17 17 17 17 17 17 17 17 17 17 17 16 16 16 16 16
19 19 19 19 18 18 18 18 18 18 18 18 18 18 17 18 18 18 18 18 18 18 18 18 18 17 17 17 17 17 17 17 17 17 17 17 17 17 16 16 16 16 16
19 19 19 19 19 18 18 18 18 18 18 18 18 18 17 17 17 18 18 18 18 18 18 17 17 17 17 17 17 17 17 17 17 17 16 16 16 16 16 16 16 16 16
19 19 19 19 19 19 18 18 18 18 18 18 18 18 18 17 17 17 17 17 17 17 17 17 17 17 17 17 17 17 17 17 17 17 16 16 16 16 16 16 16 16 16
19 19 19 19 19 19 19 18 18 18 18 18 18 18 18 18 17 17 17 17 17 17 17 17 17 17 17 17 17 16 16 16 16 16 16 16 16 16 16 16 16 16 15
19 19 19 19 19 19 19 19 18 18 18 18 18 18 18 17 17 17 17 17 17 17 17 17 17 16 16 16 16 16 16 16 16 16 16 16 16 16 16 16 16 15 15
19 19 19 19 19 19 19 18 18 18 18 18 18 18 17 17 17 17 17 17 17 17 16 16 16 16 16 16 16 16 16 16 16 16 16 16 16 16 15 15 15 15 15
19 19 19 19 19 19 19 19 18 18 18 18 18 18 17 17 17 17 17 17 16 16 16 16 16 16 16 16 16 15 15 15 15 15 15 15 15 15 15 15 15 15 15
19 19 19 19 19 19 19 18 18 18 18 18 18 17 17 17 17 17 17 17 16 15 15 16 16 16 16 16 15 15 15 15 15 15 15 15 15 15 15 15 15 15 15
19 19 19 19 18 18 18 18 18 18 18 18 17 17 17 17 17 17 16 16 16 16 15 15 15 15 15 15 15 15 15 15 15 15 15 14 15 15 15 15 15 14 14
19 19 19 18 18 18 18 18 18 18 18 17 17 17 17 17 16 16 16 16 16 16 16 15 15 15 15 15 15 15 15 15 15 14 14 14 14 14 14 14 14 14 14
19 19 18 18 18 18 18 18 17 17 17 17 17 17 16 16 16 16 16 16 16 16 15 15 15 15 15 14 14 14 14 14 14 14 14 14 14 14 14 14 14 14 14
18 18 18 18 18 18 17 17 17 17 17 17 16 16 16 16 16 16 16 16 15 15 15 15 15 14 14 14 14 14 14 14 14 14 14 14 14 14 14 13 13 13 13
18 18 18 18 17 17 17 17 17 17 16 16 16 16 16 16 16 15 15 15 15 15 15 15 14 14 14 14 14 14 14 14 14 14 13 13 13 13 13 13 13 13 13
18 18 18 17 17 17 17 17 17 16 16 16 16 16 16 15 15 15 15 15 15 15 14 14 14 14 14 14 14 13 13 14 13 13 13 13 13 13 13 13 13 13 13
18 17 17 17 17 17 17 16 16 16 16 16 16 15 15 15 15 15 15 15 14 14 14 14 14 14 14 14 13 13 13 13 13 13 13 13 13 13 13 13 13 13 13
17 17 17 17 17 17 16 16 16 16 16 16 15 15 15 15 15 15 15 14 14 14 14 14 14 14 13 13 13 13 13 13 13 13 13 13 13 13 13 13 13 13 13
17 17 17 17 17 16 16 16 16 16 15 15 15 15 15 15 15 15 14 14 14 14 14 13 13 13 13 13 13 13 13 13 13 13 12 13 13 13 13 13 13 13 13
17 17 17 16 16 16 16 16 15 15 15 15 15 15 15 15 14 14 14 14 14 14 13 13 13 13 13 13 13 13 12 12 12 12 12 12 12 13 13 13 13 12 12
17 16 16 16 16 16 16 15 15 15 15 15 15 14 14 14 14 14 14 14 14 13 13 13 13 13 13 13 12 12 12 12 12 12 12 12 12 12 12 12 12 12 12
Wind_Speed
3 2 2 2 3 3 3 2 2 2 1 2 2 3 3 4 4 5 5 8 11 12 12 12 13 12 12 12 12 12 12 12 12 13 13 13 13 12 13 13 12 12 12
4 3 2 1 1 2 3 3 3 2 2 1 1 3 3 4 5 6 6 7 9 11 12 12 12 12 12 12 12 12 12 11 11 12 13 13 14 13 14 14 14 13 13
5 4 3 1 1 1 2 2 2 1 1 1 1 2 2 3 4 5 6 6 7 9 10 11 12 12 13 13 13 12 12 12 11 11 12 12 13 13 14 14 14 14 14
6 4 3 2 2 1 1 1 1 1 0 0 0 1 1 2 3 4 5 5 6 6 7 10 11 11 12 12 12 12 12 11 11 11 11 11 11 11 12 14 14 14 14
6 4 2 1 2 1 1 1 1 1 1 0 1 1 1 2 3 3 4 4 5 6 6 7 9 11 11 11 11 11 10 10 10 10 10 11 11 10 10 12 12 12 13
6 4 2 2 2 2 1 1 1 1 1 1 0 1 1 2 2 3 3 3 4 5 6 6 6 7 8 8 9 10 10 10 10 10 10 10 10 10 10 10 11 11 12
5 4 2 2 2 2 1 1 1 1 0 1 2 2 3 1 1 2 2 2 2 3 4 5 5 5 5 6 7 8 10 11 11 10 10 10 10 10 10 10 10 11 11
5 4 3 2 2 2 1 1 1 1 0 1 2 1 2 3 2 1 1 2 2 2 2 4 5 5 5 5 6 7 9 10 9 10 10 10 10 10 10 10 10 10 11
5 4 3 3 2 2 2 1 2 2 1 1 1 3 2 1 2 2 1 1 1 1 2 2 4 4 5 4 4 6 9 10 10 10 9 9 10 10 10 10 10 10 10
4 4 3 3 3 2 2 2 2 2 2 1 1 0 2 3 2 1 2 1 1 1 2 2 3 3 4 4 5 5 7 8 8 8 8 8 8 9 9 9 9 10 9
2 3 3 3 3 2 2 2 2 2 2 2 1 0 0 0 1 2 2 2 1 1 1 2 2 2 3 4 4 5 6 7 7 6 6 7 7 8 9 9 10 10 9
1 2 3 2 2 2 2 2 2 2 2 2 1 1 2 2 2 2 2 2 1 2 1 1 1 2 3 4 4 4 6 7 7 6 6 6 7 7 8 8 8 9 9
2 3 3 2 2 2 2 2 2 1 2 2 2 2 2 2 2 2 2 2 1 2 1 1 2 2 3 3 4 4 5 6 6 6 6 6 6 6 6 6 6 7 7
3 3 3 3 3 3 3 2 2 2 1 2 2 2 1 1 2 2 3 3 1 1 1 2 2 2 3 3 4 4 5 6 6 6 6 6 6 6 6 5 6 6 7
3 4 3 3 3 3 3 3 2 2 1 1 1 1 1 1 1 2 2 3 3 2 2 2 2 2 2 3 4 4 5 6 7 7 6 6 6 6 6 6 6 6 6
3 3 3 3 3 2 3 3 2 2 2 1 1 1 1 1 1 1 2 2 2 3 3 3 3 3 2 2 3 4 5 6 7 7 7 6 6 6 6 6 7 7 7
4 4 4 3 3 3 3 3 2 2 2 1 1 1 1 1 1 1 1 2 2 2 3 3 2 2 1 1 1 3 4 5 5 7 7 7 7 7 6 5 6 6 6
4 4 4 3 3 3 3 3 3 2 2 2 2 1 2 1 1 1 1 1 2 3 3 3 2 1 2 2 2 2 3 4 5 6 7 7 7 7 7 6 6 7 7
4 4 3 3 3 3 3 3 3 3 3 3 3 3 2 1 1 1 1 1 1 1 2 3 2 2 2 1 0 1 1 1 4 5 6 6 7 8 8 8 8 8 8
5 4 4 4 4 3 3 3 3 3 3 3 3 3 3 3 3 2 1 1 1 1 1 1 1 2 1 1 0 1 1 2 3 3 4 5 7 8 9 9 9 9 9
6 5 4 4 4 4 4 4 4 4 3 3 3 3 3 3 4 3 2 2 2 2 1 1 2 1 2 1 2 2 2 2 3 2 1 3 3 4 6 9 10 11 10
4 4 4 4 4 4 5 6 5 3 3 3 3 2 2 2 3 2 3 3 4 4 3 3 2 3 4 3 2 2 2 1 3 2 2 3 3 4 5 7 10 12 11
4 4 4 4 4 4 5 5 5 4 3 4 4 3 3 2 2 2 2 1 2 4 5 5 5 5 4 5 3 3 3 3 4 3 2 3 3 4 5 7 11 12 12
4 4 4 5 4 4 5 5 4 3 3 3 4 4 4 3 2 2 2 1 2 3 4 4 5 5 5 5 5 5 4 3 3 2 3 3 3 3 4 5 9 10 11
4 4 4 4 4 4 4 5 5 2 2 2 3 2 3 3 3 3 3 2 2 3 3 3 4 4 5 5 4 2 1 1 2 3 2 2 2 2 2 3 6 8 9
4 4 3 3 4 4 4 5 5 2 2 1 1 1 3 3 3 3 3 3 3 4 3 3 3 3 3 3 3 4 4 3 2 3 2 2 2 1 2 2 2 3 4
Wind_Direction
155 164 180 175 172 174 180 180 183 182 214 217 197 183 185 196 189 188 195 195 196 192 193 196 199 200 202 204 205 205 206 207 210 209 209 211 213 216 217 216 218 221 224
162 154 157 173 194 191 185 184 186 191 211 196 206 187 178 177 182 179 184 191 195 195 200 202 202 204 208 210 209 209 210 210 211 211 212 214 216 219 222 219 220 223 227
154 149 151 154 208 191 169 156 156 163 165 162 196 205 185 177 173 180 183 190 197 200 205 207 208 210 211 211 211 211 212 213 215 214 213 216 220 224 225 221 223 223 225
153 147 152 161 171 158 134 131 132 115 101 142 211 235 216 193 184 187 186 191 194 200 205 206 210 213 214 216 215 215 216 217 218 218 218 218 221 225 228 226 225 223 223
155 149 156 166 145 129 117 145 138 147 133 118 223 243 230 208 208 193 191 191 194 199 203 210 212 211 215 219 218 217 216 214 214 216 219 220 221 223 227 224 224 222 220
151 142 139 142 137 122 114 116 143 132 160 219 265 330 267 225 210 207 203 195 196 200 201 204 209 214 221 228 223 222 219 217 218 219 219 221 224 225 226 225 223 224 222
148 137 148 136 134 137 174 153 137 99 41 84 70 13 359 336 242 216 193 184 186 183 175 187 191 191 203 220 221 224 225 223 223 223 224 224 225 226 227 229 225 223 222
152 155 151 145 145 141 137 126 120 124 219 121 122 84 7 357 350 294 178 173 182 173 173 187 183 184 195 206 215 221 227 227 224 224 226 227 226 225 225 227 224 222 220
152 151 152 151 148 146 164 180 151 151 201 280 152 142 147 223 308 334 318 160 176 188 212 195 187 195 198 199 207 215 223 226 227 228 230 229 226 223 224 228 227 224 220
158 162 158 157 157 153 167 195 165 165 155 219 292 233 179 168 166 282 322 313 235 214 223 209 190 193 192 191 204 214 221 218 221 225 227 227 223 218 222 230 228 221 218
176 172 167 161 160 164 170 172 159 156 164 170 181 199 128 99 144 165 245 293 323 287 237 217 189 190 201 202 206 216 220 217 215 222 228 229 227 226 225 230 228 222 220
196 192 173 167 172 171 171 178 177 162 174 162 163 158 162 173 192 175 204 218 243 277 255 235 217 211 216 211 219 227 217 209 208 215 225 228 231 230 229 232 222 220 221
194 210 190 179 183 190 186 175 168 183 180 170 182 190 182 194 188 172 169 194 224 280 302 278 244 220 219 207 215 227 217 208 206 213 221 222 223 223 221 219 209 216 220
194 196 191 186 192 191 188 175 174 200 187 191 203 195 180 201 178 169 173 165 170 315 314 278 283 240 225 213 213 209 206 208 207 210 219 221 222 219 219 219 212 218 220
192 191 191 192 197 188 185 173 176 197 178 191 205 193 193 216 187 187 170 165 165 212 267 268 276 267 230 215 221 209 210 212 211 212 216 222 223 221 221 216 215 223 220
193 182 185 188 189 195 187 170 174 187 162 190 189 152 234 240 209 179 179 182 170 181 228 246 246 264 240 240 238 217 217 215 214 214 215 220 222 222 224 220 218 221 220
185 186 187 185 192 203 190 175 190 178 168 199 232 205 251 215 193 195 176 175 184 171 216 265 262 278 272 266 259 222 215 205 217 219 220 223 220 221 225 224 221 220 220
187 189 185 184 199 202 188 180 194 193 183 200 228 234 264 225 172 197 172 189 208 199 194 232 276 278 259 243 235 233 221 220 222 229 225 225 225 224 222 223 228 227 227
193 192 183 189 196 193 190 194 193 197 199 206 213 209 225 188 215 233 185 215 233 220 181 189 243 261 264 247 263 274 257 245 238 238 230 229 229 227 222 225 228 228 229
194 198 194 196 197 194 195 196 195 203 210 216 212 205 205 191 203 203 201 213 203 175 160 175 233 274 269 269 181 233 291 287 272 254 232 229 233 233 232 234 235 234 231
195 194 196 203 204 203 209 202 208 213 210 225 233 223 216 200 198 193 200 199 178 171 182 194 227 273 278 259 242 226 244 279 277 249 260 245 228 235 240 243 241 241 236
201 196 202 206 215 226 219 214 205 205 203 208 224 236 228 201 201 195 198 196 187 194 204 207 228 235 245 239 232 227 222 247 270 243 207 251 214 233 241 237 240 239 236
206 211 213 209 219 228 219 211 199 188 195 203 206 216 238 227 203 208 228 239 246 232 214 203 213 229 230 228 214 230 231 228 240 234 196 250 240 239 244 242 240 239 236
202 211 219 217 216 229 217 204 189 177 190 209 218 215 210 221 215 180 180 221 274 269 247 223 216 230 237 233 216 215 222 240 263 251 187 228 246 249 260 251 244 236 233
205 210 212 210 208 221 203 188 174 169 189 225 233 207 185 197 215 187 166 189 263 286 279 258 246 244 249 242 212 178 206 218 273 271 218 201 235 254 264 262 251 240 235
205 207 215 206 197 203 207 198 182 171 188 213 248 241 223 210 218 203 187 193 229 260 280 298 295 293 279 261 234 204 197 205 234 260 244 190 217 206 288 279 259 246 238
Height
1534 1534 1535 1536 1536 1537 1537 1537 1537 1537 1538 1538 1538 1539 1539 1540 1540 1540 1540 1541 1541 1542 1543 1543 1544 1544 1545 1546 1546 1547 1548 1549 1550 1551 1552 1553 1554 1554 1555 1556 1557 1558 1558
1534 1535 1536 1536 1536 1537 1537 1537 1537 1537 1538 1538 1538 1538 1538 1539 1539 1539 1540 1540 1540 1541 1542 1542 1542 1543 1543 1544 1545 1546 1546 1547 1548 1549 1550 1551 1552 1552 1553 1553 1554 1555 1556
1535 1536 1536 1536 1536 1537 1537 1537 1537 1537 1537 1537 1537 1537 1537 1537 1538 1538 1539 1539 1539 1540 1540 1541 1541 1541 1542 1542 1543 1544 1544 1545 1546 1547 1548 1548 1549 1550 1551 1551 1552 1553 1554
1535 1535 1536 1536 1536 1537 1537 1537 1537 1537 1537 1536 1536 1536 1536 1536 1537 1537 1537 1538 1538 1539 1539 1539 1540 1540 1540 1541 1541 1542 1543 1543 1544 1544 1545 1546 1547 1547 1548 1549 1549 1550 1551
1535 1535 1536 1536 1536 1537 1537 1537 1537 1537 1536 1536 1535 1535 1535 1535 1535 1536 1536 1537 1537 1538 1538 1538 1538 1539 1539 1539 1540 1540 1541 1541 1541 1542 1543 1543 1544 1544 1545 1546 1546 1547 1548
1535 1535 1535 1536 1536 1536 1536 1536 1537 1536 1536 1535 1535 1534 1534 1534 1534 1535 1535 1536 1536 1536 1537 1537 1537 1537 1538 1538 1538 1538 1538 1539 1539 1540 1540 1541 1541 1542 1542 1543 1543 1544 1545
1534 1535 1535 1535 1536 1536 1536 1536 1536 1536 1535 1535 1534 1534 1534 1534 1534 1534 1535 1535 1535 1536 1536 1536 1536 1536 1536 1536 1536 1536 1537 1537 1537 1538 1538 1538 1539 1539 1539 1540 1541 1542 1542
1534 1534 1534 1535 1535 1535 1535 1536 1536 1535 1535 1535 1534 1533 1533 1535 1534 1535 1535 1535 1535 1535 1535 1535 1535 1535 1535 1535 1535 1535 1535 1535 1535 1535 1535 1536 1536 1536 1537 1537 1538 1538 1539
1533 1534 1534 1534 1534 1535 1535 1535 1535 1535 1534 1534 1534 1534 1533 1533 1534 1534 1534 1534 1534 1534 1534 1534 1534 1534 1534 1533 1533 1533 1532 1532 1532 1533 1533 1533 1533 1534 1534 1534 1535 1535 1536
1532 1533 1533 1533 1534 1534 1534 1534 1534 1534 1534 1533 1533 1533 1533 1533 1533 1533 1534 1534 1534 1533 1533 1533 1533 1532 1532 1532 1531 1531 1531 1530 1530 1531 1531 1531 1531 1531 1531 1532 1532 1532 1533
1531 1532 1532 1532 1533 1533 1533 1533 1533 1533 1533 1532 1532 1532 1532 1532 1532 1532 1531 1532 1532 1532 1532 1532 1531 1531 1530 1530 1529 1529 1529 1528 1528 1528 1528 1528 1528 1528 1529 1529 1529 1530 1530
1530 1531 1531 1531 1531 1531 1531 1532 1532 1531 1531 1531 1531 1531 1531 1531 1530 1530 1530 1529 1530 1530 1531 1530 1529 1529 1529 1528 1527 1527 1527 1527 1526 1526 1526 1526 1526 1526 1526 1526 1526 1527 1527
1528 1529 1529 1530 1530 1530 1530 1530 1530 1530 1530 1529 1529 1529 1529 1529 1529 1529 1529 1528 1528 1528 1528 1528 1527 1527 1527 1526 1525 1525 1525 1524 1524 1524 1523 1523 1523 1523 1523 1523 1523 1524 1524
1527 1528 1528 1528 1529 1529 1529 1529 1528 1528 1528 1527 1527 1527 1527 1527 1527 1527 1527 1526 1526 1526 1526 1525 1525 1525 1525 1524 1524 1523 1523 1522 1522 1522 1521 1521 1521 1520 1521 1520 1521 1521 1522
1526 1526 1526 1527 1527 1527 1527 1527 1526 1526 1526 1525 1525 1525 1524 1525 1525 1525 1525 1525 1525 1524 1523 1523 1523 1523 1523 1522 1522 1521 1521 1521 1520 1519 1519 1519 1518 1518 1518 1518 1519 1519 1519
1524 1524 1524 1525 1525 1525 1525 1525 1524 1524 1524 1523 1523 1523 1523 1523 1523 1523 1523 1523 1523 1522 1521 1521 1521 1521 1520 1520 1520 1519 1519 1519 1518 1518 1517 1517 1516 1515 1515 1516 1516 1517 1517
1521 1522 1522 1522 1522 1522 1522 1522 1522 1522 1522 1521 1521 1521 1521 1521 1521 1520 1520 1520 1520 1520 1519 1518 1519 1518 1518 1518 1517 1517 1516 1516 1516 1516 1515 1515 1514 1514 1513 1513 1514 1514 1514
1519 1519 1519 1520 1520 1520 1520 1520 1520 1520 1519 1519 1519 1519 1519 1519 1518 1518 1518 1518 1518 1517 1517 1516 1516 1515 1515 1515 1515 1514 1514 1514 1514 1513 1513 1513 1513 1512 1512 1511 1511 1511 1512
1516 1516 1517 1517 1517 1517 1517 1517 1517 1518 1517 1517 1517 1517 1517 1516 1516 1516 1516 1515 1515 1515 1514 1514 1513 1513 1513 1512 1512 1511 1511 1511 1511 1511 1510 1510 1510 1510 1510 1510 1510 1510 1510
1514 1514 1514 1514 1514 1515 1515 1515 1515 1515 1515 1515 1514 1514 1514 1514 1514 1514 1513 1513 1512 1512 1512 1511 1511 1510 1510 1509 1509 1508 1508 1508 1508 1508 1508 1508 1508 1508 1508 1508 1508 1508 1508
1511 1511 1512 1512 1512 1512 1512 1512 1512 1512 1512 1512 1512 1512 1512 1512 1511 1511 1511 1510 1510 1510 1509 1509 1508 1507 1507 1506 1506 1506 1505 1505 1505 1505 1505 1505 1505 1505 1505 1505 1505 1505 1505
1509 1509 1509 1509 1509 1509 1509 1509 1509 1509 1509 1509 1509 1509 1509 1509 1509 1508 1508 1508 1508 1507 1507 1506 1505 1505 1504 1504 1503 1503 1503 1502 1502 1503 1502 1502 1502 1502 1502 1502 1503 1503 1503
1506 1506 1506 1506 1506 1506 1506 1506 1506 1506 1506 1506 1506 1506 1506 1506 1506 1506 1505 1505 1505 1505 1504 1504 1503 1502 1501 1501 1501 1500 1500 1500 1499 1500 1500 1498 1499 1499 1499 1499 1499 1500 1500
1502 1503 1503 1503 1503 1503 1503 1503 1503 1503 1503 1503 1503 1503 1503 1503 1503 1503 1503 1502 1502 1501 1501 1501 1500 1500 1499 1499 1498 1498 1497 1497 1497 1497 1497 1496 1495 1496 1496 1496 1496 1497 1497
1499 1500 1500 1500 1500 1500 1500 1500 1500 1500 1500 1500 1500 1500 1500 1500 1500 1500 1500 1499 1499 1498 1498 1498 1497 1497 1496 1496 1496 1495 1495 1494 1493 1493 1493 1493 1492 1492 1493 1493 1493 1494 1494
1496 1497 1497 1497 1497 1497 1497 1497 1497 1497 1497 1497 1497 1497 1498 1497 1497 1497 1497 1496 1496 1495 1495 1494 1494 1494 1493 1493 1493 1492 1492 1491 1490 1490 1490 1490 1490 1490 1490 1490 1490 1491 1491